Hutchinson, KS

4:41 PM CST on February 19, 2018 (GMT -0600)
Hutchinson Municipal

Weather History for KHUT - May, 2012

Change the Weather History Date:

Tuesday, May 8, 2012

  Actual Average Record
Temperature  
Mean Temperature 61 °F -  
Max Temperature 79 °F 75 °F 97 °F (2011)
Min Temperature 44 °F 48 °F 37 °F (1999)
Degree Days  
Heating Degree Days 4    
Growing Degree Days 11 (Base 50)    
Moisture  
Dew Point 40 °F    
Average Humidity 53    
Maximum Humidity 85    
Minimum Humidity 21    
Precipitation  
Precipitation 0.00 in - - ()
Sea Level Pressure  
Sea Level Pressure 30.07 in    
Wind  
Wind Speed 7 mph (NW)    
Max Wind Speed 15 mph    
Max Gust Speed 17 mph    
Visibility 10 miles    
Events      
Averages and records for this station are not official NWS values.
T = Trace of Precipitation, MM = Missing Value Source: NWS Daily Summary

Daily Weather History Graph

Daily Weather History Graph

Search for Another Location

Airport or City:

Trip Planner

Search our weather history database for the weather conditions in past years. The results will help you decide how hot, cold, wet, or windy it might be!

Date:

Astronomy

May. 08, 2012 Rise Set
Actual Time 6:26 AM CDT 8:29 PM CDT
Civil Twilight 5:57 AM CDT 8:58 PM CDT
Nautical Twilight 5:22 AM CDT 9:33 PM CDT
Astronomical Twilight 4:44 AM CDT 10:12 PM CDT
Moon 11:39 PM CDT (5/8) 8:37 AM CDT (5/8)
Length of Visible Light 15h 00m
Length of Day
14h 02m
Waning Gibbous, 90% of the Moon is Illuminated
May 8
Waning Gibbous
May 12
Last Quarter
May 20
New
May 28
First Quarter
Jun 4
Full

Hourly Weather History & Observations

Time (CDT) Temp. Windchill Dew Point Humidity Pressure Visibility Wind Dir Wind Speed Gust Speed Precip Events Conditions
12:52 AM 48.0 °F - 39.9 °F 74% 30.12 in 10.0 mi WNW 5.8 mph - N/A   Clear
1:52 AM 48.9 °F - 39.9 °F 71% 30.08 in 10.0 mi NNW 10.4 mph - N/A   Clear
2:52 AM 46.0 °F 43.1 °F 39.0 °F 76% 30.09 in 10.0 mi NW 5.8 mph - N/A   Clear
3:52 AM 46.9 °F - 39.0 °F 74% 30.13 in 10.0 mi NW 3.5 mph - N/A   Clear
4:52 AM 46.9 °F - 39.9 °F 77% 30.12 in 10.0 mi NW 4.6 mph - N/A   Partly Cloudy
5:52 AM 44.1 °F 40.8 °F 39.0 °F 82% 30.13 in 10.0 mi NW 5.8 mph - N/A   Clear
6:52 AM 44.1 °F 42.5 °F 39.9 °F 85% 30.12 in 10.0 mi NNW 3.5 mph - N/A   Mostly Cloudy
7:52 AM 51.1 °F - 42.1 °F 71% 30.13 in 10.0 mi WNW 8.1 mph - N/A   Clear
8:52 AM 55.0 °F - 44.1 °F 67% 30.12 in 10.0 mi NW 5.8 mph - N/A   Clear
9:52 AM 64.9 °F - 46.9 °F 52% 30.10 in 10.0 mi Variable 6.9 mph - N/A   Partly Cloudy
10:52 AM 66.9 °F - 46.0 °F 47% 30.11 in 10.0 mi North 5.8 mph - N/A   Partly Cloudy
11:52 AM 73.0 °F - 43.0 °F 34% 30.12 in 10.0 mi NW 8.1 mph - N/A   Partly Cloudy
12:52 PM 75.0 °F - 41.0 °F 29% 30.08 in 10.0 mi WNW 10.4 mph 17.3 mph N/A   Clear
1:52 PM 73.9 °F - 37.9 °F 27% 30.05 in 10.0 mi WNW 15.0 mph - N/A   Mostly Cloudy
2:52 PM 73.0 °F - 39.9 °F 30% 30.04 in 10.0 mi WNW 8.1 mph - N/A   Overcast
3:52 PM 75.9 °F - 36.0 °F 23% 30.01 in 10.0 mi West 9.2 mph - N/A   Mostly Cloudy
4:52 PM 78.8 °F - 35.6 °F 21% 30.04 in 10.0 mi North 11.5 mph - N/A   Scattered Clouds
5:52 PM 77.0 °F - 34.0 °F 21% 30.00 in 10.0 mi North 9.2 mph - N/A   Scattered Clouds
6:52 PM 73.9 °F - 33.1 °F 22% 30.00 in 10.0 mi NNW 12.7 mph - N/A   Clear
7:52 PM 69.1 °F - 37.9 °F 32% 30.00 in 10.0 mi NNE 4.6 mph - N/A   Clear
8:52 PM 64.0 °F - 37.9 °F 38% 30.02 in 10.0 mi NNE 3.5 mph - N/A   Clear
9:52 PM 51.1 °F - 42.1 °F 71% 30.04 in 10.0 mi Calm Calm - N/A   Clear
10:52 PM 48.0 °F - 39.9 °F 74% 30.04 in 10.0 mi Calm Calm - N/A   Clear
11:52 PM 46.0 °F - 39.9 °F 79% 30.05 in 10.0 mi Calm Calm - N/A   Clear